Year,Month,Day,Hour,Minute,Value (Times are PST for windgust in km/hr)
2006,12,12,00,00,19.30
2006,12,12,00,01,12.90
2006,12,12,00,02,17.70
2006,12,12,00,03,11.30
2006,12,12,00,04,16.10
2006,12,12,00,05,9.60
2006,12,12,00,06,19.30
2006,12,12,00,07,16.10
2006,12,12,00,08,19.30
2006,12,12,00,09,20.90
2006,12,12,00,10,22.50
2006,12,12,00,11,19.30
2006,12,12,00,12,20.90
2006,12,12,00,13,14.50
2006,12,12,00,14,16.10
2006,12,12,00,15,12.90
2006,12,12,00,16,11.30
2006,12,12,00,17,17.70
2006,12,12,00,18,14.50
2006,12,12,00,19,20.90
2006,12,12,00,20,22.50
2006,12,12,00,21,17.70
2006,12,12,00,22,20.90
2006,12,12,00,23,19.30
2006,12,12,00,24,17.70
2006,12,12,00,25,20.90
2006,12,12,00,26,16.10
2006,12,12,00,27,17.70
2006,12,12,00,28,17.70
2006,12,12,00,29,14.50
2006,12,12,00,30,16.10
2006,12,12,00,31,17.70
2006,12,12,00,32,11.30
2006,12,12,00,33,22.50
2006,12,12,00,34,16.10
2006,12,12,00,35,16.10
2006,12,12,00,36,17.70
2006,12,12,00,37,17.70
2006,12,12,00,38,16.10
2006,12,12,00,39,11.30
2006,12,12,00,40,12.90
2006,12,12,00,41,20.90
2006,12,12,00,42,17.70
2006,12,12,00,43,20.90
2006,12,12,00,44,20.90
2006,12,12,00,45,19.30
2006,12,12,00,46,16.10
2006,12,12,00,47,11.30
2006,12,12,00,48,17.70
2006,12,12,00,49,17.70
2006,12,12,00,50,11.30
2006,12,12,00,51,16.10
2006,12,12,00,52,16.10
2006,12,12,00,53,17.70
2006,12,12,00,54,9.60
2006,12,12,00,55,11.30
2006,12,12,00,56,14.50
2006,12,12,00,57,6.40
2006,12,12,00,58,16.10
2006,12,12,00,59,19.30
2006,12,12,01,00,25.70
2006,12,12,01,01,17.70
2006,12,12,01,02,17.70
2006,12,12,01,03,11.30
2006,12,12,01,04,19.30
2006,12,12,01,05,9.60
2006,12,12,01,06,16.10
2006,12,12,01,07,17.70
2006,12,12,01,08,19.30
2006,12,12,01,09,14.50
2006,12,12,01,10,9.60
2006,12,12,01,11,17.70
2006,12,12,01,12,14.50
2006,12,12,01,13,14.50
2006,12,12,01,14,14.50
2006,12,12,01,15,11.30
2006,12,12,01,16,22.50
2006,12,12,01,17,19.30
2006,12,12,01,18,16.10
2006,12,12,01,19,16.10
2006,12,12,01,20,9.60
2006,12,12,01,21,12.90
2006,12,12,01,22,16.10
2006,12,12,01,23,20.90
2006,12,12,01,24,14.50
2006,12,12,01,25,14.50
2006,12,12,01,26,14.50
2006,12,12,01,27,8.10
2006,12,12,01,28,17.70
2006,12,12,01,29,11.30
2006,12,12,01,30,8.10
2006,12,12,01,31,14.50
2006,12,12,01,32,16.10
2006,12,12,01,33,12.90
2006,12,12,01,34,16.10
2006,12,12,01,35,11.30
2006,12,12,01,36,16.10
2006,12,12,01,37,11.30
2006,12,12,01,38,11.30
2006,12,12,01,39,14.50
2006,12,12,01,40,14.50
2006,12,12,01,41,8.10
2006,12,12,01,42,8.10
2006,12,12,01,43,8.10
2006,12,12,01,44,12.90
2006,12,12,01,45,4.80
2006,12,12,01,46,6.40
2006,12,12,01,47,11.30
2006,12,12,01,48,12.90
2006,12,12,01,49,6.40
2006,12,12,01,50,12.90
2006,12,12,01,51,8.10
2006,12,12,01,52,9.60
2006,12,12,01,53,6.40
2006,12,12,01,54,6.40
2006,12,12,01,55,9.60
2006,12,12,01,56,3.20
2006,12,12,01,57,4.80
2006,12,12,01,58,4.80
2006,12,12,01,59,6.40
2006,12,12,02,00,1.60
2006,12,12,02,01,11.30
2006,12,12,02,02,6.40
2006,12,12,02,03,9.60
2006,12,12,02,04,4.80
2006,12,12,02,05,6.40
2006,12,12,02,06,11.30
2006,12,12,02,07,8.10
2006,12,12,02,08,9.60
2006,12,12,02,09,4.80
2006,12,12,02,10,9.60
2006,12,12,02,11,8.10
2006,12,12,02,12,11.30
2006,12,12,02,13,9.60
2006,12,12,02,14,9.60
2006,12,12,02,15,8.10
2006,12,12,02,16,4.80
2006,12,12,02,17,6.40
2006,12,12,02,18,6.40
2006,12,12,02,19,9.60
2006,12,12,02,20,11.30
2006,12,12,02,21,6.40
2006,12,12,02,22,9.60
2006,12,12,02,23,6.40
2006,12,12,02,24,14.50
2006,12,12,02,25,19.30
2006,12,12,02,26,16.10
2006,12,12,02,27,17.70
2006,12,12,02,28,24.20
2006,12,12,02,29,17.70
2006,12,12,02,30,20.90
2006,12,12,02,31,24.20
2006,12,12,02,32,32.20
2006,12,12,02,33,29.00
2006,12,12,02,34,19.30
2006,12,12,02,35,16.10
2006,12,12,02,36,19.30
2006,12,12,02,37,24.20
2006,12,12,02,38,17.70
2006,12,12,02,39,22.50
2006,12,12,02,40,24.20
2006,12,12,02,41,30.60
2006,12,12,02,42,30.60
2006,12,12,02,43,30.60
2006,12,12,02,44,27.40
2006,12,12,02,45,30.60
2006,12,12,02,46,24.20
2006,12,12,02,47,19.30
2006,12,12,02,48,20.90
2006,12,12,02,49,17.70
2006,12,12,02,50,22.50
2006,12,12,02,51,17.70
2006,12,12,02,52,14.50
2006,12,12,02,53,19.30
2006,12,12,02,54,16.10
2006,12,12,02,55,20.90
2006,12,12,02,56,16.10
2006,12,12,02,57,19.30
2006,12,12,02,58,16.10
2006,12,12,02,59,11.30
2006,12,12,03,00,11.30
2006,12,12,03,01,16.10
2006,12,12,03,02,20.90
2006,12,12,03,03,17.70
2006,12,12,03,04,20.90
2006,12,12,03,05,16.10
2006,12,12,03,06,20.90
2006,12,12,03,07,17.70
2006,12,12,03,08,14.50
2006,12,12,03,09,9.60
2006,12,12,03,10,14.50
2006,12,12,03,11,14.50
2006,12,12,03,12,16.10
2006,12,12,03,13,12.90
2006,12,12,03,14,16.10
2006,12,12,03,15,17.70
2006,12,12,03,16,14.50
2006,12,12,03,17,20.90
2006,12,12,03,18,14.50
2006,12,12,03,19,17.70
2006,12,12,03,20,17.70
2006,12,12,03,21,11.30
2006,12,12,03,22,16.10
2006,12,12,03,23,16.10
2006,12,12,03,24,24.20
2006,12,12,03,25,19.30
2006,12,12,03,26,11.30
2006,12,12,03,27,22.50
2006,12,12,03,28,19.30
2006,12,12,03,29,14.50
2006,12,12,03,30,6.40
2006,12,12,03,31,8.10
2006,12,12,03,32,17.70
2006,12,12,03,33,25.70
2006,12,12,03,34,14.50
2006,12,12,03,35,9.60
2006,12,12,03,36,16.10
2006,12,12,03,37,25.70
2006,12,12,03,38,25.70
2006,12,12,03,39,24.20
2006,12,12,03,40,17.70
2006,12,12,03,41,14.50
2006,12,12,03,42,17.70
2006,12,12,03,43,19.30
2006,12,12,03,44,17.70
2006,12,12,03,45,14.50
2006,12,12,03,46,11.30
2006,12,12,03,47,16.10
2006,12,12,03,48,16.10
2006,12,12,03,49,17.70
2006,12,12,03,50,16.10
2006,12,12,03,51,20.90
2006,12,12,03,52,17.70
2006,12,12,03,53,20.90
2006,12,12,03,54,16.10
2006,12,12,03,55,12.90
2006,12,12,03,56,16.10
2006,12,12,03,57,16.10
2006,12,12,03,58,14.50
2006,12,12,03,59,12.90
2006,12,12,04,00,11.30
2006,12,12,04,01,8.10
2006,12,12,04,02,17.70
2006,12,12,04,03,17.70
2006,12,12,04,04,9.60
2006,12,12,04,05,6.40
2006,12,12,04,06,11.30
2006,12,12,04,07,16.10
2006,12,12,04,08,14.50
2006,12,12,04,09,22.50
2006,12,12,04,10,11.30
2006,12,12,04,11,11.30
2006,12,12,04,12,11.30
2006,12,12,04,13,9.60
2006,12,12,04,14,9.60
2006,12,12,04,15,11.30
2006,12,12,04,16,9.60
2006,12,12,04,17,14.50
2006,12,12,04,18,14.50
2006,12,12,04,19,9.60
2006,12,12,04,20,9.60
2006,12,12,04,21,9.60
2006,12,12,04,22,8.10
2006,12,12,04,23,9.60
2006,12,12,04,24,9.60
2006,12,12,04,25,4.80
2006,12,12,04,26,6.40
2006,12,12,04,27,6.40
2006,12,12,04,28,4.80
2006,12,12,04,29,0.00
2006,12,12,04,30,4.80
2006,12,12,04,31,9.60
2006,12,12,04,32,11.30
2006,12,12,04,33,14.50
2006,12,12,04,34,14.50
2006,12,12,04,35,3.20
2006,12,12,04,36,8.10
2006,12,12,04,37,9.60
2006,12,12,04,38,17.70
2006,12,12,04,39,19.30
2006,12,12,04,40,14.50
2006,12,12,04,41,16.10
2006,12,12,04,42,22.50
2006,12,12,04,43,19.30
2006,12,12,04,44,17.70
2006,12,12,04,45,17.70
2006,12,12,04,46,19.30
2006,12,12,04,47,27.40
2006,12,12,04,48,27.40
2006,12,12,04,49,24.20
2006,12,12,04,50,17.70
2006,12,12,04,51,22.50
2006,12,12,04,52,24.20
2006,12,12,04,53,27.40
2006,12,12,04,54,24.20
2006,12,12,04,55,27.40
2006,12,12,04,56,22.50
2006,12,12,04,57,14.50
2006,12,12,04,58,29.00
2006,12,12,04,59,27.40
2006,12,12,05,00,24.20
2006,12,12,05,01,17.70
2006,12,12,05,02,20.90
2006,12,12,05,03,25.70
2006,12,12,05,04,19.30
2006,12,12,05,05,19.30
2006,12,12,05,06,9.60
2006,12,12,05,07,22.50
2006,12,12,05,08,16.10
2006,12,12,05,09,17.70
2006,12,12,05,10,16.10
2006,12,12,05,11,14.50
2006,12,12,05,12,19.30
2006,12,12,05,13,19.30
2006,12,12,05,14,25.70
2006,12,12,05,15,27.40
2006,12,12,05,16,22.50
2006,12,12,05,17,22.50
2006,12,12,05,18,16.10
2006,12,12,05,19,14.50
2006,12,12,05,20,14.50
2006,12,12,05,21,17.70
2006,12,12,05,22,17.70
2006,12,12,05,23,22.50
2006,12,12,05,24,17.70
2006,12,12,05,25,19.30
2006,12,12,05,26,19.30
2006,12,12,05,27,20.90
2006,12,12,05,28,17.70
2006,12,12,05,29,11.30
2006,12,12,05,30,22.50
2006,12,12,05,31,20.90
2006,12,12,05,32,24.20
2006,12,12,05,33,20.90
2006,12,12,05,34,20.90
2006,12,12,05,35,16.10
2006,12,12,05,36,17.70
2006,12,12,05,37,11.30
2006,12,12,05,38,19.30
2006,12,12,05,39,25.70
2006,12,12,05,40,25.70
2006,12,12,05,41,20.90
2006,12,12,05,42,14.50
2006,12,12,05,43,17.70
2006,12,12,05,44,14.50
2006,12,12,05,45,17.70
2006,12,12,05,46,11.30
2006,12,12,05,47,11.30
2006,12,12,05,48,17.70
2006,12,12,05,49,19.30
2006,12,12,05,50,27.40
2006,12,12,05,51,25.70
2006,12,12,05,52,35.40
2006,12,12,05,53,25.70
2006,12,12,05,54,32.20
2006,12,12,05,55,30.60
2006,12,12,05,56,24.20
2006,12,12,05,57,30.60
2006,12,12,05,58,27.40
2006,12,12,05,59,20.90
2006,12,12,06,00,24.20
2006,12,12,06,01,20.90
2006,12,12,06,02,20.90
2006,12,12,06,03,14.50
2006,12,12,06,04,24.20
2006,12,12,06,05,19.30
2006,12,12,06,06,19.30
2006,12,12,06,07,19.30
2006,12,12,06,08,20.90
2006,12,12,06,09,17.70
2006,12,12,06,10,11.30
2006,12,12,06,11,17.70
2006,12,12,06,12,16.10
2006,12,12,06,13,16.10
2006,12,12,06,14,16.10
2006,12,12,06,15,20.90
2006,12,12,06,16,24.20
2006,12,12,06,17,16.10
2006,12,12,06,18,17.70
2006,12,12,06,19,17.70
2006,12,12,06,20,16.10
2006,12,12,06,21,16.10
2006,12,12,06,22,17.70
2006,12,12,06,23,16.10
2006,12,12,06,24,16.10
2006,12,12,06,25,20.90
2006,12,12,06,26,16.10
2006,12,12,06,27,19.30
2006,12,12,06,28,12.90
2006,12,12,06,29,16.10
2006,12,12,06,30,16.10
2006,12,12,06,31,11.30
2006,12,12,06,32,19.30
2006,12,12,06,33,16.10
2006,12,12,06,34,17.70
2006,12,12,06,35,14.50
2006,12,12,06,36,17.70
2006,12,12,06,37,25.70
2006,12,12,06,38,22.50
2006,12,12,06,39,25.70
2006,12,12,06,40,16.10
2006,12,12,06,41,16.10
2006,12,12,06,42,16.10
2006,12,12,06,43,20.90
2006,12,12,06,44,22.50
2006,12,12,06,45,14.50
2006,12,12,06,46,20.90
2006,12,12,06,47,16.10
2006,12,12,06,48,22.50
2006,12,12,06,49,20.90
2006,12,12,06,50,17.70
2006,12,12,06,51,20.90
2006,12,12,06,52,19.30
2006,12,12,06,53,20.90
2006,12,12,06,54,11.30
2006,12,12,06,55,19.30
2006,12,12,06,56,16.10
2006,12,12,06,57,17.70
2006,12,12,06,58,17.70
2006,12,12,06,59,14.50
2006,12,12,07,00,16.10
2006,12,12,07,01,16.10
2006,12,12,07,02,20.90
2006,12,12,07,03,16.10
2006,12,12,07,04,19.30
2006,12,12,07,05,16.10
2006,12,12,07,06,20.90
2006,12,12,07,07,22.50
2006,12,12,07,08,16.10
2006,12,12,07,09,16.10
2006,12,12,07,10,24.20
2006,12,12,07,11,20.90
2006,12,12,07,12,22.50
2006,12,12,07,13,25.70
2006,12,12,07,14,22.50
2006,12,12,07,15,16.10
2006,12,12,07,16,20.90
2006,12,12,07,17,16.10
2006,12,12,07,18,29.00
2006,12,12,07,19,24.20
2006,12,12,07,20,25.70
2006,12,12,07,21,27.40
2006,12,12,07,22,30.60
2006,12,12,07,23,22.50
2006,12,12,07,24,20.90
2006,12,12,07,25,22.50
2006,12,12,07,26,20.90
2006,12,12,07,27,27.40
2006,12,12,07,28,30.60
2006,12,12,07,29,25.70
2006,12,12,07,30,22.50
2006,12,12,07,31,33.80
2006,12,12,07,32,32.20
2006,12,12,07,33,25.70
2006,12,12,07,34,20.90
2006,12,12,07,35,22.50
2006,12,12,07,36,22.50
2006,12,12,07,37,24.20
2006,12,12,07,38,19.30
2006,12,12,07,39,24.20
2006,12,12,07,40,20.90
2006,12,12,07,41,17.70
2006,12,12,07,42,20.90
2006,12,12,07,43,16.10
2006,12,12,07,44,20.90
2006,12,12,07,45,25.70
2006,12,12,07,46,20.90
2006,12,12,07,47,22.50
2006,12,12,07,48,27.40
2006,12,12,07,49,27.40
2006,12,12,07,50,24.20
2006,12,12,07,51,19.30
2006,12,12,07,52,17.70
2006,12,12,07,53,19.30
2006,12,12,07,54,16.10
2006,12,12,07,55,14.50
2006,12,12,07,56,14.50
2006,12,12,07,57,17.70
2006,12,12,07,58,14.50
2006,12,12,07,59,9.60
2006,12,12,08,00,8.10
2006,12,12,08,01,19.30
2006,12,12,08,02,16.10
2006,12,12,08,03,16.10
2006,12,12,08,04,11.30
2006,12,12,08,05,11.30
2006,12,12,08,06,14.50
2006,12,12,08,07,14.50
2006,12,12,08,08,16.10
2006,12,12,08,09,11.30
2006,12,12,08,10,11.30
2006,12,12,08,11,11.30
2006,12,12,08,12,16.10
2006,12,12,08,13,14.50
2006,12,12,08,14,11.30
2006,12,12,08,15,11.30
2006,12,12,08,16,11.30
2006,12,12,08,17,16.10
2006,12,12,08,18,9.60
2006,12,12,08,19,8.10
2006,12,12,08,20,16.10
2006,12,12,08,21,9.60
2006,12,12,08,22,9.60
2006,12,12,08,23,6.40
2006,12,12,08,24,8.10
2006,12,12,08,25,12.90
2006,12,12,08,26,14.50
2006,12,12,08,27,17.70
2006,12,12,08,28,17.70
2006,12,12,08,29,16.10
2006,12,12,08,30,14.50
2006,12,12,08,31,9.60
2006,12,12,08,32,11.30
2006,12,12,08,33,17.70
2006,12,12,08,34,11.30
2006,12,12,08,35,11.30
2006,12,12,08,36,12.90
2006,12,12,08,37,11.30
2006,12,12,08,38,11.30
2006,12,12,08,39,11.30
2006,12,12,08,40,9.60
2006,12,12,08,41,9.60
2006,12,12,08,42,6.40
2006,12,12,08,43,14.50
2006,12,12,08,44,12.90
2006,12,12,08,45,14.50
2006,12,12,08,46,17.70
2006,12,12,08,47,14.50
2006,12,12,08,48,14.50
2006,12,12,08,49,19.30
2006,12,12,08,50,14.50
2006,12,12,08,51,12.90
2006,12,12,08,52,17.70
2006,12,12,08,53,22.50
2006,12,12,08,54,20.90
2006,12,12,08,55,22.50
2006,12,12,08,56,14.50
2006,12,12,08,57,16.10
2006,12,12,08,58,16.10
2006,12,12,08,59,9.60
2006,12,12,09,00,14.50
2006,12,12,09,01,11.30
2006,12,12,09,02,11.30
2006,12,12,09,03,14.50
2006,12,12,09,04,11.30
2006,12,12,09,05,16.10
2006,12,12,09,06,9.60
2006,12,12,09,07,19.30
2006,12,12,09,08,17.70
2006,12,12,09,09,17.70
2006,12,12,09,10,29.00
2006,12,12,09,11,27.40
2006,12,12,09,12,22.50
2006,12,12,09,13,37.00
2006,12,12,09,14,27.40
2006,12,12,09,15,27.40
2006,12,12,09,16,25.70
2006,12,12,09,17,16.10
2006,12,12,09,18,20.90
2006,12,12,09,19,24.20
2006,12,12,09,20,17.70
2006,12,12,09,21,14.50
2006,12,12,09,22,16.10
2006,12,12,09,23,17.70
2006,12,12,09,24,14.50
2006,12,12,09,25,11.30
2006,12,12,09,26,16.10
2006,12,12,09,27,16.10
2006,12,12,09,28,14.50
2006,12,12,09,29,16.10
2006,12,12,09,30,11.30
2006,12,12,09,31,9.60
2006,12,12,09,32,11.30
2006,12,12,09,33,11.30
2006,12,12,09,34,9.60
2006,12,12,09,35,6.40
2006,12,12,09,36,8.10
2006,12,12,09,37,11.30
2006,12,12,09,38,9.60
2006,12,12,09,39,8.10
2006,12,12,09,40,11.30
2006,12,12,09,41,6.40
2006,12,12,09,42,8.10
2006,12,12,09,43,6.40
2006,12,12,09,44,9.60
2006,12,12,09,45,14.50
2006,12,12,09,46,9.60
2006,12,12,09,47,24.20
2006,12,12,09,48,27.40
2006,12,12,09,49,22.50
2006,12,12,09,50,29.00
2006,12,12,09,51,22.50
2006,12,12,09,52,22.50
2006,12,12,09,53,35.40
2006,12,12,09,54,17.70
2006,12,12,09,55,19.30
2006,12,12,09,56,20.90
2006,12,12,09,57,17.70
2006,12,12,09,58,25.70
2006,12,12,09,59,30.60
2006,12,12,10,00,20.90
2006,12,12,10,01,16.10
2006,12,12,10,02,20.90
2006,12,12,10,03,17.70
2006,12,12,10,04,17.70
2006,12,12,10,05,9.60
2006,12,12,10,06,11.30
2006,12,12,10,07,9.60
2006,12,12,10,08,11.30
2006,12,12,10,09,9.60
2006,12,12,10,10,17.70
2006,12,12,10,11,12.90
2006,12,12,10,12,16.10
2006,12,12,10,13,16.10
2006,12,12,10,14,14.50
2006,12,12,10,15,11.30
2006,12,12,10,16,9.60
2006,12,12,10,17,16.10
2006,12,12,10,18,14.50
2006,12,12,10,19,11.30
2006,12,12,10,20,9.60
2006,12,12,10,21,14.50
2006,12,12,10,22,22.50
2006,12,12,10,23,14.50
2006,12,12,10,24,14.50
2006,12,12,10,25,14.50
2006,12,12,10,26,16.10
2006,12,12,10,27,17.70
2006,12,12,10,28,14.50
2006,12,12,10,29,11.30
2006,12,12,10,30,14.50
2006,12,12,10,31,16.10
2006,12,12,10,32,16.10
2006,12,12,10,33,9.60
2006,12,12,10,34,6.40
2006,12,12,10,35,6.40
2006,12,12,10,36,8.10
2006,12,12,10,37,11.30
2006,12,12,10,38,16.10
2006,12,12,10,39,14.50
2006,12,12,10,40,12.90
2006,12,12,10,41,11.30
2006,12,12,10,42,16.10
2006,12,12,10,43,14.50
2006,12,12,10,44,16.10
2006,12,12,10,45,22.50
2006,12,12,10,46,19.30
2006,12,12,10,47,6.40
2006,12,12,10,48,8.10
2006,12,12,10,49,14.50
2006,12,12,10,50,11.30
2006,12,12,10,51,9.60
2006,12,12,10,52,16.10
2006,12,12,10,53,14.50
2006,12,12,10,54,9.60
2006,12,12,10,55,9.60
2006,12,12,10,56,9.60
2006,12,12,10,57,11.30
2006,12,12,10,58,19.30
2006,12,12,10,59,9.60
2006,12,12,11,00,14.50
2006,12,12,11,01,12.90
2006,12,12,11,02,11.30
2006,12,12,11,03,17.70
2006,12,12,11,04,14.50
2006,12,12,11,05,11.30
2006,12,12,11,06,9.60
2006,12,12,11,07,9.60
2006,12,12,11,08,9.60
2006,12,12,11,09,9.60
2006,12,12,11,10,16.10
2006,12,12,11,11,17.70
2006,12,12,11,12,19.30
2006,12,12,11,13,11.30
2006,12,12,11,14,16.10
2006,12,12,11,15,17.70
2006,12,12,11,16,20.90
2006,12,12,11,17,20.90
2006,12,12,11,18,19.30
2006,12,12,11,19,14.50
2006,12,12,11,20,11.30
2006,12,12,11,21,11.30
2006,12,12,11,22,16.10
2006,12,12,11,23,14.50
2006,12,12,11,24,14.50
2006,12,12,11,25,14.50
2006,12,12,11,26,9.60
2006,12,12,11,27,9.60
2006,12,12,11,28,9.60
2006,12,12,11,29,17.70
2006,12,12,11,30,16.10
2006,12,12,11,31,19.30
2006,12,12,11,32,14.50
2006,12,12,11,33,9.60
2006,12,12,11,34,11.30
2006,12,12,11,35,9.60
2006,12,12,11,36,11.30
2006,12,12,11,37,16.10
2006,12,12,11,38,16.10
2006,12,12,11,39,9.60
2006,12,12,11,40,9.60
2006,12,12,11,41,17.70
2006,12,12,11,42,16.10
2006,12,12,11,43,24.20
2006,12,12,11,44,22.50
2006,12,12,11,45,17.70
2006,12,12,11,46,19.30
2006,12,12,11,47,14.50
2006,12,12,11,48,8.10
2006,12,12,11,49,11.30
2006,12,12,11,50,14.50
2006,12,12,11,51,8.10
2006,12,12,11,52,14.50
2006,12,12,11,53,16.10
2006,12,12,11,54,17.70
2006,12,12,11,55,19.30
2006,12,12,11,56,17.70
2006,12,12,11,57,17.70
2006,12,12,11,58,16.10
2006,12,12,11,59,11.30
2006,12,12,12,00,9.60
2006,12,12,12,01,8.10
2006,12,12,12,02,6.40
2006,12,12,12,03,9.60
2006,12,12,12,04,14.50
2006,12,12,12,05,8.10
2006,12,12,12,06,6.40
2006,12,12,12,07,11.30
2006,12,12,12,08,9.60
2006,12,12,12,09,6.40
2006,12,12,12,10,8.10
2006,12,12,12,11,8.10
2006,12,12,12,12,8.10
2006,12,12,12,13,8.10
2006,12,12,12,14,6.40
2006,12,12,12,15,6.40
2006,12,12,12,16,4.80
2006,12,12,12,17,11.30
2006,12,12,12,18,14.50
2006,12,12,12,19,11.30
2006,12,12,12,20,17.70
2006,12,12,12,21,14.50
2006,12,12,12,22,6.40
2006,12,12,12,23,9.60
2006,12,12,12,24,8.10
2006,12,12,12,25,17.70
2006,12,12,12,26,14.50
2006,12,12,12,27,16.10
2006,12,12,12,28,11.30
2006,12,12,12,29,9.60
2006,12,12,12,30,8.10
2006,12,12,12,31,6.40
2006,12,12,12,32,3.20
2006,12,12,12,33,4.80
2006,12,12,12,34,6.40
2006,12,12,12,35,8.10
2006,12,12,12,36,8.10
2006,12,12,12,37,6.40
2006,12,12,12,38,6.40
2006,12,12,12,39,8.10
2006,12,12,12,40,11.30
2006,12,12,12,41,14.50
2006,12,12,12,42,14.50
2006,12,12,12,43,16.10
2006,12,12,12,44,11.30
2006,12,12,12,45,14.50
2006,12,12,12,46,12.90
2006,12,12,12,47,11.30
2006,12,12,12,48,16.10
2006,12,12,12,49,16.10
2006,12,12,12,50,8.10
2006,12,12,12,51,9.60
2006,12,12,12,52,14.50
2006,12,12,12,53,11.30
2006,12,12,12,54,11.30
2006,12,12,12,55,14.50
2006,12,12,12,56,22.50
2006,12,12,12,57,19.30
2006,12,12,12,58,16.10
2006,12,12,12,59,16.10
2006,12,12,13,00,11.30
2006,12,12,13,01,12.90
2006,12,12,13,02,16.10
2006,12,12,13,03,16.10
2006,12,12,13,04,11.30
2006,12,12,13,05,17.70
2006,12,12,13,06,8.10
2006,12,12,13,07,11.30
2006,12,12,13,08,9.60
2006,12,12,13,09,11.30
2006,12,12,13,10,11.30
2006,12,12,13,11,9.60
2006,12,12,13,12,9.60
2006,12,12,13,13,11.30
2006,12,12,13,14,11.30
2006,12,12,13,15,14.50
2006,12,12,13,16,6.40
2006,12,12,13,17,9.60
2006,12,12,13,18,16.10
2006,12,12,13,19,17.70
2006,12,12,13,20,19.30
2006,12,12,13,21,11.30
2006,12,12,13,22,11.30
2006,12,12,13,23,17.70
2006,12,12,13,24,11.30
2006,12,12,13,25,17.70
2006,12,12,13,26,17.70
2006,12,12,13,27,12.90
2006,12,12,13,28,16.10
2006,12,12,13,29,14.50
2006,12,12,13,30,11.30
2006,12,12,13,31,16.10
2006,12,12,13,32,14.50
2006,12,12,13,33,16.10
2006,12,12,13,34,20.90
2006,12,12,13,35,9.60
2006,12,12,13,36,14.50
2006,12,12,13,37,17.70
2006,12,12,13,38,14.50
2006,12,12,13,39,14.50
2006,12,12,13,40,19.30
2006,12,12,13,41,16.10
2006,12,12,13,42,16.10
2006,12,12,13,43,12.90
2006,12,12,13,44,16.10
2006,12,12,13,45,16.10
2006,12,12,13,46,14.50
2006,12,12,13,47,11.30
2006,12,12,13,48,11.30
2006,12,12,13,49,12.90
2006,12,12,13,50,11.30
2006,12,12,13,51,17.70
2006,12,12,13,52,14.50
2006,12,12,13,53,16.10
2006,12,12,13,54,14.50
2006,12,12,13,55,11.30
2006,12,12,13,56,14.50
2006,12,12,13,57,16.10
2006,12,12,13,58,11.30
2006,12,12,13,59,14.50
2006,12,12,14,00,11.30
2006,12,12,14,01,4.80
2006,12,12,14,02,6.40
2006,12,12,14,03,9.60
2006,12,12,14,04,8.10
2006,12,12,14,05,16.10
2006,12,12,14,06,9.60
2006,12,12,14,07,8.10
2006,12,12,14,08,12.90
2006,12,12,14,09,8.10
2006,12,12,14,10,8.10
2006,12,12,14,11,11.30
2006,12,12,14,12,11.30
2006,12,12,14,13,17.70
2006,12,12,14,14,16.10
2006,12,12,14,15,20.90
2006,12,12,14,16,19.30
2006,12,12,14,17,17.70
2006,12,12,14,18,22.50
2006,12,12,14,19,19.30
2006,12,12,14,20,16.10
2006,12,12,14,21,12.90
2006,12,12,14,22,16.10
2006,12,12,14,23,22.50
2006,12,12,14,24,19.30
2006,12,12,14,25,12.90
2006,12,12,14,26,16.10
2006,12,12,14,27,16.10
2006,12,12,14,28,12.90
2006,12,12,14,29,9.60
2006,12,12,14,30,11.30
2006,12,12,14,31,16.10
2006,12,12,14,32,11.30
2006,12,12,14,33,16.10
2006,12,12,14,34,16.10
2006,12,12,14,35,19.30
2006,12,12,14,36,12.90
2006,12,12,14,37,14.50
2006,12,12,14,38,9.60
2006,12,12,14,39,9.60
2006,12,12,14,40,9.60
2006,12,12,14,41,11.30
2006,12,12,14,42,8.10
2006,12,12,14,43,8.10
2006,12,12,14,44,6.40
2006,12,12,14,45,9.60
2006,12,12,14,46,11.30
2006,12,12,14,47,6.40
2006,12,12,14,48,9.60
2006,12,12,14,49,14.50
2006,12,12,14,50,4.80
2006,12,12,14,51,6.40
2006,12,12,14,52,11.30
2006,12,12,14,53,6.40
2006,12,12,14,54,11.30
2006,12,12,14,55,9.60
2006,12,12,14,56,9.60
2006,12,12,14,57,11.30
2006,12,12,14,58,12.90
2006,12,12,14,59,9.60
2006,12,12,15,00,8.10
2006,12,12,15,01,8.10
2006,12,12,15,02,8.10
2006,12,12,15,03,11.30
2006,12,12,15,04,6.40
2006,12,12,15,05,11.30
2006,12,12,15,06,11.30
2006,12,12,15,07,9.60
2006,12,12,15,08,3.20
2006,12,12,15,09,8.10
2006,12,12,15,10,8.10
2006,12,12,15,11,9.60
2006,12,12,15,12,8.10
2006,12,12,15,13,4.80
2006,12,12,15,14,8.10
2006,12,12,15,15,4.80
2006,12,12,15,16,8.10
2006,12,12,15,17,8.10
2006,12,12,15,18,8.10
2006,12,12,15,19,11.30
2006,12,12,15,20,4.80
2006,12,12,15,21,9.60
2006,12,12,15,22,9.60
2006,12,12,15,23,8.10
2006,12,12,15,24,4.80
2006,12,12,15,25,9.60
2006,12,12,15,26,6.40
2006,12,12,15,27,8.10
2006,12,12,15,28,4.80
2006,12,12,15,29,8.10
2006,12,12,15,30,9.60
2006,12,12,15,31,4.80
2006,12,12,15,32,9.60
2006,12,12,15,33,8.10
2006,12,12,15,34,3.20
2006,12,12,15,35,6.40
2006,12,12,15,36,6.40
2006,12,12,15,37,8.10
2006,12,12,15,38,3.20
2006,12,12,15,39,4.80
2006,12,12,15,40,9.60
2006,12,12,15,41,3.20
2006,12,12,15,42,8.10
2006,12,12,15,43,6.40
2006,12,12,15,44,9.60
2006,12,12,15,45,3.20
2006,12,12,15,46,9.60
2006,12,12,15,47,6.40
2006,12,12,15,48,8.10
2006,12,12,15,49,8.10
2006,12,12,15,50,8.10
2006,12,12,15,51,9.60
2006,12,12,15,52,6.40
2006,12,12,15,53,6.40
2006,12,12,15,54,3.20
2006,12,12,15,55,6.40
2006,12,12,15,56,9.60
2006,12,12,15,57,6.40
2006,12,12,15,58,9.60
2006,12,12,15,59,4.80
2006,12,12,16,00,3.20
2006,12,12,16,01,4.80
2006,12,12,16,02,1.60
2006,12,12,16,03,4.80
2006,12,12,16,04,8.10
2006,12,12,16,05,8.10
2006,12,12,16,06,6.40
2006,12,12,16,07,3.20
2006,12,12,16,08,4.80
2006,12,12,16,09,4.80
2006,12,12,16,10,6.40
2006,12,12,16,11,6.40
2006,12,12,16,12,8.10
2006,12,12,16,13,4.80
2006,12,12,16,14,4.80
2006,12,12,16,15,8.10
2006,12,12,16,16,8.10
2006,12,12,16,17,3.20
2006,12,12,16,18,8.10
2006,12,12,16,19,6.40
2006,12,12,16,20,1.60
2006,12,12,16,21,1.60
2006,12,12,16,22,11.30
2006,12,12,16,23,6.40
2006,12,12,16,24,6.40
2006,12,12,16,25,6.40
2006,12,12,16,26,6.40
2006,12,12,16,27,11.30
2006,12,12,16,28,1.60
2006,12,12,16,29,4.80
2006,12,12,16,30,6.40
2006,12,12,16,31,4.80
2006,12,12,16,32,6.40
2006,12,12,16,33,8.10
2006,12,12,16,34,8.10
2006,12,12,16,35,9.60
2006,12,12,16,36,3.20
2006,12,12,16,37,9.60
2006,12,12,16,38,9.60
2006,12,12,16,39,4.80
2006,12,12,16,40,6.40
2006,12,12,16,41,6.40
2006,12,12,16,42,4.80
2006,12,12,16,43,6.40
2006,12,12,16,44,8.10
2006,12,12,16,45,6.40
2006,12,12,16,46,6.40
2006,12,12,16,47,4.80
2006,12,12,16,48,6.40
2006,12,12,16,49,9.60
2006,12,12,16,50,9.60
2006,12,12,16,51,11.30
2006,12,12,16,52,6.40
2006,12,12,16,53,17.70
2006,12,12,16,54,19.30
2006,12,12,16,55,16.10
2006,12,12,16,56,12.90
2006,12,12,16,57,17.70
2006,12,12,16,58,11.30
2006,12,12,16,59,9.60
2006,12,12,17,00,4.80
2006,12,12,17,01,8.10
2006,12,12,17,02,6.40
2006,12,12,17,03,11.30
2006,12,12,17,04,9.60
2006,12,12,17,05,8.10
2006,12,12,17,06,9.60
2006,12,12,17,07,11.30
2006,12,12,17,08,14.50
2006,12,12,17,09,8.10
2006,12,12,17,10,8.10
2006,12,12,17,11,9.60
2006,12,12,17,12,8.10
2006,12,12,17,13,8.10
2006,12,12,17,14,6.40
2006,12,12,17,15,4.80
2006,12,12,17,16,8.10
2006,12,12,17,17,9.60
2006,12,12,17,18,8.10
2006,12,12,17,19,8.10
2006,12,12,17,20,20.90
2006,12,12,17,21,14.50
2006,12,12,17,22,8.10
2006,12,12,17,23,11.30
2006,12,12,17,24,9.60
2006,12,12,17,25,9.60
2006,12,12,17,26,11.30
2006,12,12,17,27,11.30
2006,12,12,17,28,8.10
2006,12,12,17,29,17.70
2006,12,12,17,30,9.60
2006,12,12,17,31,6.40
2006,12,12,17,32,6.40
2006,12,12,17,33,12.90